M I D A S
Marine Information and Data Acquisition System
Tripno 665 of the Zeeleeuw from 2004-03-11 07:14:48 to 2004-03-11 15:54:52
Back to CruiseResearch ActivitiesStationsMapUnderway DataData graphs

EquipmentUnitsComments
TimeDGPSUTC
LatitudeDGPSDM.mWGS84
LongitudeDGPSDM.mWGS84
SpeedMeteo Stationm/sRelative wind speed
DirectionMeteo StationdegRelative wind direction
TemperatureMeteo Stationdeg CelciusAir temperature
PressureMeteo StationPaAtmospheric pressure
HumidityMeteo Station%Relative humidity
Missing or incorrect values are displayed as -999
Metereological data collected by the RV Zeeleeuw from 2004-03-11 07:14:48 to 2004-03-11 15:54:52
Time Latitude Longitude Speed Direction Temperature Pressure Humidity
2004-03-11 07:15 51°13.592 2°56.109 3.6 337 1.3 102180 90
2004-03-11 07:16 51°13.592 2°56.109 2.8 340 1.3 102180 90
2004-03-11 07:17 51°13.591 2°56.109 3.4 3 1.3 102180 90
2004-03-11 07:18 51°13.611 2°56.047 1.2 321 1.3 102180 90
2004-03-11 07:19 51°13.649 2°55.926 1.2 335 1.2 102190 90
2004-03-11 07:20 51°13.667 2°55.786 2.7 51 1.2 102180 89
2004-03-11 07:21 51°13.686 2°55.776 3.5 102 1.2 102180 90
2004-03-11 07:22 51°13.743 2°55.721 2.3 135 1.2 102180 90
2004-03-11 07:23 51°13.844 2°55.624 2.4 25 1.3 102200 90
2004-03-11 07:24 51°13.992 2°55.516 3.8 46 1.3 102200 89
2004-03-11 07:25 51°14.131 2°55.416 3.3 36 1.3 102200 89
2004-03-11 07:26 51°14.267 2°55.258 3.7 27 1.2 102200 89
2004-03-11 07:27 51°14.395 2°55.016 4.7 24 1.2 102190 89
2004-03-11 07:28 51°14.478 2°54.769 1.7 62 1.2 102210 89
2004-03-11 07:29 51°14.562 2°54.545 2 77 1.3 102190 89
2004-03-11 07:30 51°14.673 2°54.248 2.9 32 1.3 102190 90
2004-03-11 07:31 51°14.789 2°53.939 3 44 1.2 102150 89
2004-03-11 07:32 51°14.905 2°53.612 2.5 41 1.2 102140 89
2004-03-11 07:33 51°15.027 2°53.271 2.8 30 1.2 102190 89
2004-03-11 07:34 51°15.133 2°52.929 1.5 21 1.2 102180 89
2004-03-11 07:35 51°15.233 2°52.575 2.6 350 1.2 102180 89
2004-03-11 07:36 51°15.33 2°52.233 2.9 351 1.2 102180 89
2004-03-11 07:37 51°15.402 2°51.847 3.3 334 1.2 102180 89
2004-03-11 07:38 51°15.407 2°51.456 5.4 318 1.2 102180 89
2004-03-11 07:39 51°15.386 2°51.064 4.9 334 1.3 102170 89
2004-03-11 07:40 51°15.343 2°50.689 4.8 327 1.3 102180 89
2004-03-11 07:41 51°15.292 2°50.292 5.9 316 1.3 102170 89
2004-03-11 07:42 51°15.247 2°49.905 6.1 331 1.4 102160 89
2004-03-11 07:43 51°15.204 2°49.517 6 322 1.4 102120 89
2004-03-11 07:44 51°15.161 2°49.13 6.2 317 1.4 102130 89
2004-03-11 07:45 51°15.117 2°48.744 6.8 324 1.4 102120 89
2004-03-11 07:46 51°15.076 2°48.356 5.9 317 1.4 102130 89
2004-03-11 07:47 51°15.035 2°47.966 7.7 310 1.4 102130 89
2004-03-11 07:48 51°14.991 2°47.578 6.6 318 1.4 102120 89
2004-03-11 07:49 51°14.95 2°47.193 6.6 311 1.4 102120 89
2004-03-11 07:50 51°14.907 2°46.814 6.7 310 1.4 102130 88
2004-03-11 07:51 51°14.868 2°46.437 6.1 312 1.4 102120 88
2004-03-11 07:52 51°14.825 2°46.058 6 313 1.5 102120 89
2004-03-11 07:53 51°14.807 2°45.663 5.8 323 1.5 102130 88
2004-03-11 07:54 51°14.766 2°45.266 5.8 311 1.5 102120 88
2004-03-11 07:55 51°14.724 2°44.871 5.2 303 1.4 102130 88
2004-03-11 07:56 51°14.682 2°44.477 6.2 308 1.5 102120 88
2004-03-11 07:57 51°14.634 2°44.086 5 315 1.5 102120 88
2004-03-11 07:58 51°14.592 2°43.707 5.9 303 1.5 102120 88
2004-03-11 07:59 51°14.544 2°43.299 5.8 314 1.4 102130 88
2004-03-11 08:00 51°14.495 2°42.903 5.8 312 1.4 102120 88
2004-03-11 08:01 51°14.447 2°42.507 5.2 309 1.4 102130 88
2004-03-11 08:02 51°14.406 2°42.111 4.4 311 1.5 102120 88
2004-03-11 08:03 51°14.368 2°41.714 5.7 308 1.5 102160 88
2004-03-11 08:04 51°14.335 2°41.33 4.8 309 1.5 102120 88
2004-03-11 08:05 51°14.3 2°40.918 5.6 303 1.5 102120 88
2004-03-11 08:06 51°14.266 2°40.521 5.1 313 1.5 102120 88
2004-03-11 08:07 51°14.235 2°40.125 4.8 309 1.5 102130 88
2004-03-11 08:08 51°14.205 2°39.727 4.8 300 1.5 102130 88
2004-03-11 08:09 51°14.172 2°39.334 3.9 300 1.5 102130 88
2004-03-11 08:10 51°14.139 2°38.943 4.7 311 1.5 102120 88
2004-03-11 08:11 51°14.109 2°38.555 5 306 1.6 102120 88
2004-03-11 08:12 51°14.035 2°38.159 7.7 309 1.5 102110 87
2004-03-11 08:13 51°13.935 2°37.809 7 310 1.5 102100 87
2004-03-11 08:14 51°13.833 2°37.425 6 311 1.5 102110 87
2004-03-11 08:15 51°13.736 2°37.057 8.6 312 1.6 102110 87
2004-03-11 08:16 51°13.641 2°36.685 7.9 314 1.6 102110 88
2004-03-11 08:17 51°13.545 2°36.312 7.7 309 1.6 102100 88
2004-03-11 08:18 51°13.452 2°35.94 7.8 227 1.6 102100 88
2004-03-11 08:19 51°13.354 2°35.587 7.9 317 1.6 102110 88
2004-03-11 08:20 51°13.229 2°35.245 8.5 319 1.6 102090 88
2004-03-11 08:21 51°13.065 2°34.935 9.2 315 1.6 102090 88
2004-03-11 08:22 51°12.875 2°34.697 10.4 317 1.6 102120 88
2004-03-11 08:23 51°12.686 2°34.465 9.2 44 1.6 102080 88
2004-03-11 08:24 51°12.518 2°34.28 9.6 323 1.6 102120 88
2004-03-11 08:25 51°12.428 2°34.253 8.8 326 1.6 102130 88
2004-03-11 08:26 51°12.374 2°34.236 7.4 322 1.6 102130 88
2004-03-11 08:27 51°12.336 2°34.212 7.4 321 1.5 102130 88
2004-03-11 08:28 51°12.307 2°34.179 6.4 314 1.5 102130 88
2004-03-11 08:29 51°12.274 2°34.139 7.8 298 1.6 102130 88
2004-03-11 08:30 51°12.224 2°34.079 7.1 294 1.6 102130 88
2004-03-11 08:31 51°12.173 2°34.01 7 299 1.7 102130 88
2004-03-11 08:32 51°12.126 2°33.931 7.7 280 1.7 102130 88
2004-03-11 08:33 51°12.087 2°33.839 6.9 273 1.6 102130 88
2004-03-11 08:34 51°12.055 2°33.742 8.1 268 1.6 102130 88
2004-03-11 08:35 51°12.021 2°33.653 7.3 268 1.6 102130 88
2004-03-11 08:36 51°11.987 2°33.565 7.3 267 1.6 102130 88
2004-03-11 08:37 51°11.949 2°33.481 7.1 277 1.6 102130 88
2004-03-11 08:38 51°11.909 2°33.397 8.3 272 1.6 102130 88
2004-03-11 08:39 51°11.867 2°33.314 6.7 266 1.6 102130 88
2004-03-11 08:40 51°11.824 2°33.232 7.1 270 1.6 102130 88
2004-03-11 08:41 51°11.782 2°33.151 7.5 277 1.6 102130 88
2004-03-11 08:42 51°11.741 2°33.075 7.7 274 1.6 102130 88
2004-03-11 08:43 51°11.697 2°32.993 8.4 270 1.5 102130 88
2004-03-11 08:44 51°11.655 2°32.915 7.2 286 1.6 102130 88
2004-03-11 08:45 51°11.61 2°32.845 7.9 285 1.6 102120 88
2004-03-11 08:46 51°11.558 2°32.781 7.5 298 1.6 102130 88
2004-03-11 08:47 51°11.506 2°32.724 7.8 293 1.7 102130 89
2004-03-11 08:48 51°11.454 2°32.673 7.7 294 1.7 102120 89
2004-03-11 08:49 51°11.403 2°32.617 7.6 295 1.6 102130 88
2004-03-11 08:50 51°11.354 2°32.55 6 275 1.6 102130 88
2004-03-11 08:51 51°11.31 2°32.475 7.3 274 1.6 102130 88
2004-03-11 08:52 51°11.269 2°32.388 7.2 275 1.6 102130 88
2004-03-11 08:53 51°11.229 2°32.31 6.4 267 1.6 102130 88
2004-03-11 08:54 51°11.2 2°32.208 4.4 238 1.6 102130 88
2004-03-11 08:55 51°11.195 2°32.099 3.5 211 1.6 102130 88
2004-03-11 08:56 51°11.202 2°32.005 4.4 197 1.6 102120 87
2004-03-11 08:57 51°11.213 2°31.926 4 204 1.8 102120 88
2004-03-11 08:58 51°11.246 2°31.854 5.9 113 1.9 102130 88
2004-03-11 08:59 51°11.291 2°31.909 8.2 30 1.9 102120 87
2004-03-11 09:00 51°11.233 2°31.971 10.1 329 1.8 102100 87
2004-03-11 09:01 51°11.168 2°31.959 7.6 318 1.7 102100 87
2004-03-11 09:02 51°11.104 2°31.927 8.9 43 1.7 102100 87
2004-03-11 09:03 51°11.042 2°31.887 8.1 304 1.7 102100 86
2004-03-11 09:04 51°10.983 2°31.84 7.3 308 1.7 102100 86
2004-03-11 09:05 51°10.925 2°31.784 7.6 301 1.7 102110 86
2004-03-11 09:06 51°10.869 2°31.731 7.8 304 1.7 102100 86
2004-03-11 09:07 51°10.812 2°31.683 6.9 306 1.7 102100 86
2004-03-11 09:08 51°10.754 2°31.638 7 303 1.8 102110 86
2004-03-11 09:09 51°10.697 2°31.592 7.3 305 1.9 102100 86
2004-03-11 09:10 51°10.64 2°31.544 7.4 302 1.8 102090 86
2004-03-11 09:11 51°10.585 2°31.495 7.4 302 1.9 102100 86
2004-03-11 09:12 51°10.529 2°31.445 7.9 295 1.9 102100 86
2004-03-11 09:13 51°10.476 2°31.385 7.4 297 1.9 102090 86
2004-03-11 09:14 51°10.426 2°31.326 8 298 1.8 102100 85
2004-03-11 09:15 51°10.373 2°31.263 7.7 293 1.9 102100 86
2004-03-11 09:16 51°10.326 2°31.191 5.9 275 1.8 102100 85
2004-03-11 09:17 51°10.283 2°31.111 6.6 286 1.8 102100 85
2004-03-11 09:18 51°10.24 2°31.032 7.3 282 1.8 102100 85
2004-03-11 09:19 51°10.194 2°30.958 6.9 283 1.8 102100 85
2004-03-11 09:20 51°10.151 2°30.879 7.5 284 1.8 102100 85
2004-03-11 09:21 51°10.11 2°30.793 7.6 268 1.8 102100 85
2004-03-11 09:22 51°10.07 2°30.706 6.1 278 1.8 102100 85
2004-03-11 09:23 51°10.028 2°30.619 5.7 287 1.8 102100 85
2004-03-11 09:24 51°9.988 2°30.533 8 267 2 102100 86
2004-03-11 09:25 51°9.968 2°30.434 4.9 248 2 102100 86
2004-03-11 09:26 51°9.965 2°30.33 4.7 246 1.9 102110 85
2004-03-11 09:27 51°9.962 2°30.223 4 244 1.9 102100 85
2004-03-11 09:28 51°9.964 2°30.114 4.7 228 2 102100 85
2004-03-11 09:29 51°9.975 2°30.012 5.1 217 1.9 102100 85
2004-03-11 09:30 51°9.979 2°29.925 4.4 230 1.8 102110 84
2004-03-11 09:31 51°9.975 2°29.846 3.9 251 1.9 102100 84
2004-03-11 09:32 51°9.965 2°29.775 4.2 255 1.9 102100 84
2004-03-11 09:33 51°9.953 2°29.711 4.3 250 1.9 102100 83
2004-03-11 09:34 51°9.938 2°29.652 3.8 255 1.9 102100 83
2004-03-11 09:35 51°9.94 2°29.549 2.8 166 1.9 102110 83
2004-03-11 09:36 51°9.991 2°29.509 5.5 110 2 102100 83
2004-03-11 09:37 51°10.024 2°29.519 6.1 93 1.9 102100 83
2004-03-11 09:38 51°10.044 2°29.531 6.7 103 1.9 102100 82
2004-03-11 09:39 51°10.061 2°29.531 6.8 87 1.9 102100 83
2004-03-11 09:40 51°10.075 2°29.521 6.1 118 1.9 102100 83
2004-03-11 09:41 51°10.088 2°29.495 5 142 1.9 102100 82
2004-03-11 09:42 51°10.1 2°29.456 5.6 147 1.9 102110 82
2004-03-11 09:43 51°10.108 2°29.403 4.8 174 1.9 102100 83
2004-03-11 09:44 51°10.108 2°29.337 6.2 223 2 102100 83
2004-03-11 09:45 51°10.096 2°29.266 5.2 241 1.9 102090 82
2004-03-11 09:46 51°10.068 2°29.193 6.3 296 2 102100 82
2004-03-11 09:47 51°10.001 2°29.143 8 346 2 102090 83
2004-03-11 09:48 51°9.947 2°29.135 6.7 1 2 102090 82
2004-03-11 09:49 51°9.909 2°29.125 7 8 2 102090 82
2004-03-11 09:50 51°9.882 2°29.112 6.2 29 2 102090 82
2004-03-11 09:51 51°9.873 2°29.149 7.4 73 2 102070 81
2004-03-11 09:52 51°9.962 2°29.327 9.6 47 2 102040 81
2004-03-11 09:53 51°10.087 2°29.582 10.2 47 1.9 102040 81
2004-03-11 09:54 51°10.217 2°29.839 9.4 42 1.9 102040 81
2004-03-11 09:55 51°10.353 2°30.091 8.8 37 1.9 102040 82
2004-03-11 09:56 51°10.488 2°30.342 10.8 43 1.9 102030 82
2004-03-11 09:57 51°10.623 2°30.594 9.9 49 1.9 102040 82
2004-03-11 09:58 51°10.757 2°30.846 9.7 43 1.9 102040 82
2004-03-11 09:59 51°10.892 2°31.098 11.4 44 1.9 102050 81
2004-03-11 10:00 51°11.028 2°31.35 11.1 47 1.9 102040 82
2004-03-11 10:01 51°11.165 2°31.603 10 51 1.9 102040 82
2004-03-11 10:02 51°11.302 2°31.856 10.3 41 2 102030 82
2004-03-11 10:03 51°11.438 2°32.109 10.4 43 2 102040 82
2004-03-11 10:04 51°11.573 2°32.364 9.4 44 1.9 102030 82
2004-03-11 10:05 51°11.71 2°32.616 9.8 43 2 102030 82
2004-03-11 10:06 51°11.846 2°32.868 10.7 50 2 102040 81
2004-03-11 10:07 51°11.982 2°33.12 9.6 55 2 102020 81
2004-03-11 10:08 51°12.117 2°33.372 10.3 45 2.1 102030 80
2004-03-11 10:09 51°12.247 2°33.627 10.5 46 2.1 102030 80
2004-03-11 10:10 51°12.371 2°33.903 11.4 38 2.1 102040 80
2004-03-11 10:11 51°12.492 2°34.175 10.4 45 2.1 102020 80
2004-03-11 10:12 51°12.614 2°34.449 10.9 48 2 102030 79
2004-03-11 10:13 51°12.736 2°34.724 9.7 52 2.1 102040 80
2004-03-11 10:14 51°12.857 2°34.999 10.2 42 2 102030 80
2004-03-11 10:15 51°12.982 2°35.269 10.1 41 2 102040 79
2004-03-11 10:16 51°13.105 2°35.535 10.8 53 2 102030 79
2004-03-11 10:17 51°13.223 2°35.817 11.6 46 2.1 102030 79
2004-03-11 10:18 51°13.339 2°36.092 9.4 41 2.1 102030 78
2004-03-11 10:19 51°13.455 2°36.364 10.1 49 2.1 102030 78
2004-03-11 10:20 51°13.572 2°36.634 10.2 44 2.1 102030 78
2004-03-11 10:21 51°13.672 2°36.923 10.5 40 2.1 102030 77
2004-03-11 10:22 51°13.765 2°37.216 11.4 40 2.1 102040 78
2004-03-11 10:23 51°13.854 2°37.511 9.9 36 2.1 102030 77
2004-03-11 10:24 51°13.931 2°37.808 11.9 37 2.1 102020 77
2004-03-11 10:25 51°13.988 2°38.113 12.2 31 2.1 102030 77
2004-03-11 10:26 51°14.022 2°38.432 11.5 33 2.1 102030 77
2004-03-11 10:27 51°13.998 2°38.757 12.9 17 2.2 102020 78
2004-03-11 10:28 51°13.813 2°38.933 14 348 2.2 102040 77
2004-03-11 10:29 51°13.576 2°38.856 11.1 332 2.2 102020 76
2004-03-11 10:30 51°13.351 2°38.676 11.6 330 2.2 102020 76
2004-03-11 10:31 51°13.135 2°38.463 11 334 2.3 102020 76
2004-03-11 10:32 51°12.922 2°38.248 11.5 330 2.3 102020 75
2004-03-11 10:33 51°12.705 2°38.037 10.7 331 2.3 102020 76
2004-03-11 10:34 51°12.49 2°37.826 11.4 332 2.3 102020 76
2004-03-11 10:35 51°12.276 2°37.611 10.8 331 2.3 102030 76
2004-03-11 10:36 51°12.061 2°37.396 11.9 332 2.3 102020 76
2004-03-11 10:37 51°11.847 2°37.183 11.6 328 2.3 102030 76
2004-03-11 10:38 51°11.633 2°36.971 10.6 327 2.3 102010 76
2004-03-11 10:39 51°11.421 2°36.758 12.2 331 2.3 102020 76
2004-03-11 10:40 51°11.209 2°36.544 11.3 332 2.3 102010 76
2004-03-11 10:41 51°10.996 2°36.332 11.5 329 2.3 102010 76
2004-03-11 10:42 51°10.783 2°36.122 10.8 329 2.3 102020 76
2004-03-11 10:43 51°10.598 2°35.962 9.7 332 2.4 102050 75
2004-03-11 10:44 51°10.506 2°35.862 6.8 290 2.4 102050 74
2004-03-11 10:45 51°10.46 2°35.765 5.7 282 2.5 102060 75
2004-03-11 10:46 51°10.415 2°35.67 5.8 282 2.5 102060 75
2004-03-11 10:47 51°10.37 2°35.586 7 287 2.6 102060 75
2004-03-11 10:48 51°10.326 2°35.509 6 285 2.5 102060 73
2004-03-11 10:49 51°10.277 2°35.43 6.6 292 2.5 102060 72
2004-03-11 10:50 51°10.229 2°35.35 6.5 269 2.5 102050 72
2004-03-11 10:51 51°10.188 2°35.265 6 265 2.6 102060 72
2004-03-11 10:52 51°10.151 2°35.177 5.1 278 2.7 102050 72
2004-03-11 10:53 51°10.116 2°35.089 5.3 282 2.7 102050 72
2004-03-11 10:54 51°10.084 2°34.999 6.3 275 2.8 102050 71
2004-03-11 10:55 51°10.052 2°34.905 5.8 276 2.8 102050 70
2004-03-11 10:56 51°10.017 2°34.813 6.3 285 2.8 102050 70
2004-03-11 10:57 51°9.983 2°34.72 6.8 280 2.8 102040 70
2004-03-11 10:58 51°9.948 2°34.631 6.5 287 2.7 102040 69
2004-03-11 10:59 51°9.91 2°34.544 6.5 285 2.8 102040 70
2004-03-11 11:00 51°9.873 2°34.457 7.3 283 2.8 102040 69
2004-03-11 11:01 51°9.836 2°34.37 6.4 283 2.7 102040 68
2004-03-11 11:02 51°9.799 2°34.282 6.6 278 2.7 102040 68
2004-03-11 11:03 51°9.761 2°34.196 6.4 278 2.7 102040 66
2004-03-11 11:04 51°9.721 2°34.111 5.7 279 2.7 102030 66
2004-03-11 11:05 51°9.682 2°34.027 5 274 2.7 102030 66
2004-03-11 11:06 51°9.646 2°33.938 4.7 284 2.7 102030 65
2004-03-11 11:07 51°9.606 2°33.853 5.2 296 2.7 102020 66
2004-03-11 11:08 51°9.562 2°33.771 4.9 306 2.7 102030 66
2004-03-11 11:09 51°9.517 2°33.695 5.5 303 2.8 102020 66
2004-03-11 11:10 51°9.468 2°33.627 5.3 309 2.8 102020 65
2004-03-11 11:11 51°9.419 2°33.569 5.9 327 2.8 102020 65
2004-03-11 11:12 51°9.365 2°33.515 6.3 327 2.8 102020 65
2004-03-11 11:13 51°9.316 2°33.449 5.3 298 2.8 102010 65
2004-03-11 11:14 51°9.277 2°33.36 7.6 269 2.9 102010 66
2004-03-11 11:15 51°9.247 2°33.254 4.1 253 2.8 102020 65
2004-03-11 11:16 51°9.224 2°33.151 3.2 251 2.8 102010 64
2004-03-11 11:17 51°9.198 2°33.054 6.4 276 2.8 102010 65
2004-03-11 11:18 51°9.097 2°32.993 10.1 352 2.9 102000 66
2004-03-11 11:19 51°9.001 2°33.125 10.4 4 2.9 101980 65
2004-03-11 11:20 51°8.892 2°33.312 12.2 20 2.9 101970 66
2004-03-11 11:21 51°8.781 2°33.516 11.7 15 2.9 101980 64
2004-03-11 11:22 51°8.682 2°33.728 12.3 1 2.9 101980 64
2004-03-11 11:23 51°8.591 2°33.819 7.1 348 2.8 102000 64
2004-03-11 11:24 51°8.515 2°33.819 7.4 333 2.8 101990 64
2004-03-11 11:25 51°8.448 2°33.79 7.2 313 2.9 101990 64
2004-03-11 11:26 51°8.389 2°33.734 4.7 290 2.9 101990 64
2004-03-11 11:27 51°8.338 2°33.653 5.5 270 2.8 102000 64
2004-03-11 11:28 51°8.294 2°33.564 5.2 263 2.8 102000 65
2004-03-11 11:29 51°8.252 2°33.477 9.1 265 2.8 101990 65
2004-03-11 11:30 51°8.214 2°33.385 6.2 260 2.8 101980 65
2004-03-11 11:31 51°8.178 2°33.293 4.2 257 2.8 101980 65
2004-03-11 11:32 51°8.142 2°33.204 4.2 254 2.8 101980 65
2004-03-11 11:33 51°8.105 2°33.116 6.7 259 2.9 101980 66
2004-03-11 11:34 51°8.07 2°33.027 4.8 255 2.8 101980 66
2004-03-11 11:35 51°8.035 2°32.939 3.8 255 2.8 101980 66
2004-03-11 11:36 51°8.001 2°32.849 3.7 253 2.8 101980 66
2004-03-11 11:37 51°7.968 2°32.758 5.4 269 2.8 101980 66
2004-03-11 11:38 51°7.938 2°32.666 3.6 270 2.8 101980 66
2004-03-11 11:39 51°7.91 2°32.572 4.4 260 2.9 101980 67
2004-03-11 11:40 51°7.887 2°32.477 5.8 271 3 101980 68
2004-03-11 11:41 51°7.865 2°32.381 4.7 258 3 101970 67
2004-03-11 11:42 51°7.841 2°32.288 7.7 271 3 101970 66
2004-03-11 11:43 51°7.815 2°32.195 7.2 273 3 101970 66
2004-03-11 11:44 51°7.786 2°32.105 6.3 275 3 101970 65
2004-03-11 11:45 51°7.757 2°32.016 5.7 264 3 101960 66
2004-03-11 11:46 51°7.73 2°31.925 3.8 261 2.9 101970 65
2004-03-11 11:47 51°7.707 2°31.832 3.6 248 2.9 101960 64
2004-03-11 11:48 51°7.688 2°31.737 3.9 236 2.9 101960 65
2004-03-11 11:49 51°7.676 2°31.644 2.2 250 2.9 101960 66
2004-03-11 11:50 51°7.671 2°31.554 2.7 252 3 101960 66
2004-03-11 11:51 51°7.67 2°31.461 3.6 247 3 101960 66
2004-03-11 11:52 51°7.669 2°31.366 3.9 233 3 101960 66
2004-03-11 11:53 51°7.664 2°31.279 2.5 253 3 101950 66
2004-03-11 11:54 51°7.653 2°31.201 2.6 249 3 101960 66
2004-03-11 11:55 51°7.662 2°31.084 1.2 178 3 101960 66
2004-03-11 11:56 51°7.725 2°31.062 6.2 62 3.1 101960 67
2004-03-11 11:57 51°7.753 2°31.14 7.5 42 3.1 101940 67
2004-03-11 11:58 51°7.764 2°31.215 7.2 43 3 101940 67
2004-03-11 11:59 51°7.772 2°31.289 8.6 36 2.9 101930 66
2004-03-11 12:00 51°7.773 2°31.361 7.7 36 2.9 101920 66
2004-03-11 12:01 51°7.772 2°31.433 7.1 47 2.8 101920 65
2004-03-11 12:02 51°7.775 2°31.505 7.1 25 2.8 101920 65
2004-03-11 12:03 51°7.774 2°31.578 6.8 26 2.8 101930 66
2004-03-11 12:04 51°7.766 2°31.651 8.1 29 2.9 101930 65
2004-03-11 12:05 51°7.76 2°31.726 6.5 31 2.9 101920 65
2004-03-11 12:06 51°7.756 2°31.803 7.5 44 2.8 101920 64
2004-03-11 12:07 51°7.749 2°31.883 6.2 42 2.8 101930 64
2004-03-11 12:08 51°7.749 2°31.962 5.6 64 2.8 101930 64
2004-03-11 12:09 51°7.768 2°32.035 4.5 58 2.8 101940 64
2004-03-11 12:10 51°7.787 2°32.111 4.5 59 2.8 101940 64
2004-03-11 12:11 51°7.807 2°32.19 5.1 60 2.8 101940 66
2004-03-11 12:12 51°7.825 2°32.27 5 42 2.9 101930 67
2004-03-11 12:13 51°7.841 2°32.35 5.3 33 2.9 101930 67
2004-03-11 12:14 51°7.857 2°32.43 5.8 40 2.9 101930 66
2004-03-11 12:15 51°7.873 2°32.51 7.1 40 2.9 101930 65
2004-03-11 12:16 51°7.891 2°32.589 6.4 41 2.8 101920 66
2004-03-11 12:17 51°7.915 2°32.661 6.7 56 2.8 101920 66
2004-03-11 12:18 51°7.952 2°32.719 5.7 67 2.8 101930 67
2004-03-11 12:19 51°7.993 2°32.774 5.8 65 2.8 101920 68
2004-03-11 12:20 51°8.031 2°32.833 5.6 56 2.8 101920 67
2004-03-11 12:21 51°8.066 2°32.898 6.6 56 2.8 101920 66
2004-03-11 12:22 51°8.099 2°32.967 6.2 74 2.8 101920 68
2004-03-11 12:23 51°8.131 2°33.038 5.4 66 2.9 101920 67
2004-03-11 12:24 51°8.162 2°33.11 6.9 61 2.9 101920 68
2004-03-11 12:25 51°8.194 2°33.181 6.4 56 2.9 101910 68
2004-03-11 12:26 51°8.226 2°33.251 7.9 52 2.8 101910 68
2004-03-11 12:27 51°8.256 2°33.322 7.2 70 2.8 101920 67
2004-03-11 12:28 51°8.286 2°33.397 5 64 2.9 101910 68
2004-03-11 12:29 51°8.311 2°33.478 3.8 50 2.9 101910 69
2004-03-11 12:30 51°8.334 2°33.563 4.8 66 2.9 101920 68
2004-03-11 12:31 51°8.354 2°33.648 5.9 59 2.9 101910 67
2004-03-11 12:32 51°8.369 2°33.735 7.5 57 2.9 101910 67
2004-03-11 12:33 51°8.38 2°33.822 7.1 48 2.9 101910 66
2004-03-11 12:34 51°8.383 2°33.891 6.7 46 2.9 101900 67
2004-03-11 12:35 51°8.383 2°33.939 5.9 55 2.8 101910 64
2004-03-11 12:36 51°8.388 2°33.966 5.2 67 2.9 101900 66
2004-03-11 12:37 51°8.399 2°33.981 4.1 99 2.9 101910 65
2004-03-11 12:38 51°8.434 2°33.987 5.2 124 2.9 101910 67
2004-03-11 12:39 51°8.481 2°33.966 3.7 121 2.9 101910 66
2004-03-11 12:40 51°8.519 2°33.94 4.2 136 3 101910 66
2004-03-11 12:41 51°8.552 2°33.921 4.6 128 2.9 101910 65
2004-03-11 12:42 51°8.581 2°33.907 4.5 133 3 101900 66
2004-03-11 12:43 51°8.607 2°33.896 4.3 146 3.1 101900 67
2004-03-11 12:44 51°8.632 2°33.884 4 142 3.1 101900 66
2004-03-11 12:45 51°8.66 2°33.859 4.1 176 3.1 101900 66
2004-03-11 12:46 51°8.683 2°33.816 4.6 216 3.1 101900 64
2004-03-11 12:47 51°8.69 2°33.76 3.4 253 3.1 101900 63
2004-03-11 12:48 51°8.679 2°33.707 5.9 270 3.1 101890 63
2004-03-11 12:49 51°8.656 2°33.667 6.6 285 3.2 101900 65
2004-03-11 12:50 51°8.625 2°33.646 6.4 304 3.3 101890 65
2004-03-11 12:51 51°8.59 2°33.648 7.4 332 3.3 101890 63
2004-03-11 12:52 51°8.559 2°33.665 6.6 354 3.3 101890 63
2004-03-11 12:53 51°8.535 2°33.699 6.6 17 3.3 101900 62
2004-03-11 12:54 51°8.522 2°33.747 5.9 42 3.2 101890 62
2004-03-11 12:55 51°8.527 2°33.805 5.9 61 3.1 101890 63
2004-03-11 12:56 51°8.637 2°33.954 10.8 55 3.1 101870 63
2004-03-11 12:57 51°8.786 2°34.23 10.7 33 3.1 101870 65
2004-03-11 12:58 51°8.924 2°34.529 12.2 29 3.1 101870 65
2004-03-11 12:59 51°9.059 2°34.829 11 28 3.1 101870 65
2004-03-11 13:00 51°9.194 2°35.13 9.5 34 3.1 101870 64
2004-03-11 13:01 51°9.32 2°35.444 9.1 41 3 101870 64
2004-03-11 13:02 51°9.44 2°35.763 11 39 3 101860 65
2004-03-11 13:03 51°9.553 2°36.086 12.3 29 3 101860 66
2004-03-11 13:04 51°9.657 2°36.417 13.1 34 3.1 101860 67
2004-03-11 13:05 51°9.761 2°36.75 13.3 29 3 101850 65
2004-03-11 13:06 51°9.867 2°37.082 12.6 25 3 101860 65
2004-03-11 13:07 51°9.974 2°37.415 13.1 31 3 101860 65
2004-03-11 13:08 51°10.083 2°37.748 11.7 37 3 101850 65
2004-03-11 13:09 51°10.191 2°38.082 11.5 36 3 101860 65
2004-03-11 13:10 51°10.296 2°38.42 11.1 35 3.1 101870 67
2004-03-11 13:11 51°10.401 2°38.756 12 26 3 101860 66
2004-03-11 13:12 51°10.507 2°39.092 12 28 3 101860 66
2004-03-11 13:13 51°10.61 2°39.43 13.2 29 3 101860 65
2004-03-11 13:14 51°10.711 2°39.768 11.9 31 3 101870 64
2004-03-11 13:15 51°10.813 2°40.108 13 42 3.1 101860 66
2004-03-11 13:16 51°10.926 2°40.439 11.6 43 3 101850 64
2004-03-11 13:17 51°11.047 2°40.766 12.5 41 3 101860 64
2004-03-11 13:18 51°11.172 2°41.09 11.9 48 3 101850 64
2004-03-11 13:19 51°11.301 2°41.413 10.1 47 3 101860 65
2004-03-11 13:20 51°11.446 2°41.718 10.7 51 3.1 101850 65
2004-03-11 13:21 51°11.594 2°42.021 10.3 58 3.1 101850 64
2004-03-11 13:22 51°11.746 2°42.319 10.8 42 3.1 101850 63
2004-03-11 13:23 51°11.898 2°42.621 9.1 45 3.1 101860 64
2004-03-11 13:24 51°12.049 2°42.923 10.8 49 3.1 101850 65
2004-03-11 13:25 51°12.155 2°43.272 10.3 37 3.1 101850 64
2004-03-11 13:26 51°12.251 2°43.631 10.5 43 3.1 101840 64
2004-03-11 13:27 51°12.345 2°43.992 11.6 43 3.1 101860 64
2004-03-11 13:28 51°12.438 2°44.355 11.5 45 3.1 101850 63
2004-03-11 13:29 51°12.529 2°44.719 11.7 42 3.2 101850 64
2004-03-11 13:30 51°12.621 2°45.083 9.9 37 3.2 101850 64
2004-03-11 13:31 51°12.713 2°45.447 11.8 33 3.2 101850 63
2004-03-11 13:32 51°12.809 2°45.812 11.9 35 3.2 101850 65
2004-03-11 13:33 51°12.921 2°46.164 12 31 3.2 101840 66
2004-03-11 13:34 51°13.042 2°46.508 10.9 45 3.3 101840 66
2004-03-11 13:35 51°13.179 2°46.835 11.5 33 3.2 101840 66
2004-03-11 13:36 51°13.314 2°47.162 11.9 34 3.2 101850 66
2004-03-11 13:37 51°13.448 2°47.49 11.7 37 3.2 101840 66
2004-03-11 13:38 51°13.589 2°47.814 9.9 37 3.2 101840 66
2004-03-11 13:39 51°13.735 2°48.132 9.5 34 3.2 101840 66
2004-03-11 13:40 51°13.86 2°48.397 6 55 3.2 101860 66
2004-03-11 13:41 51°13.923 2°48.457 3.6 139 3.2 101850 66
2004-03-11 13:42 51°13.97 2°48.469 4.5 120 3.2 101850 68
2004-03-11 13:43 51°14.038 2°48.485 6.1 107 3.2 101850 67
2004-03-11 13:44 51°14.104 2°48.529 6.2 97 3.2 101860 67
2004-03-11 13:45 51°14.157 2°48.595 6.8 86 3.2 101860 66
2004-03-11 13:46 51°14.204 2°48.671 5.3 77 3.2 101840 67
2004-03-11 13:47 51°14.246 2°48.753 7.6 65 3.2 101850 67
2004-03-11 13:48 51°14.284 2°48.836 6.9 74 3.2 101840 66
2004-03-11 13:49 51°14.323 2°48.92 6.3 70 3.2 101840 66
2004-03-11 13:50 51°14.362 2°49.005 7 57 3.2 101850 67
2004-03-11 13:51 51°14.401 2°49.09 7.3 59 3.2 101840 67
2004-03-11 13:52 51°14.434 2°49.178 5.8 61 3.1 101840 66
2004-03-11 13:53 51°14.469 2°49.27 8.1 55 3.2 101830 68
2004-03-11 13:54 51°14.501 2°49.364 7.2 48 3.2 101830 67
2004-03-11 13:55 51°14.529 2°49.459 5.2 56 3.1 101840 66
2004-03-11 13:56 51°14.555 2°49.558 7 47 3.1 101830 67
2004-03-11 13:57 51°14.584 2°49.657 6.5 64 3.2 101830 66
2004-03-11 13:58 51°14.615 2°49.754 5.3 67 3.2 101830 67
2004-03-11 13:59 51°14.647 2°49.849 6.3 66 3.3 101830 68
2004-03-11 14:00 51°14.679 2°49.944 6.2 68 3.3 101830 67
2004-03-11 14:01 51°14.714 2°50.039 6.2 64 3.3 101830 67
2004-03-11 14:02 51°14.746 2°50.132 6.7 58 3.3 101830 67
2004-03-11 14:03 51°14.78 2°50.224 6.9 83 3.3 101820 67
2004-03-11 14:04 51°14.815 2°50.317 5.9 80 3.3 101820 66
2004-03-11 14:05 51°14.849 2°50.412 6.4 81 3.3 101820 67
2004-03-11 14:06 51°14.882 2°50.508 4.9 78 3.3 101830 67
2004-03-11 14:07 51°14.915 2°50.605 5.6 84 3.4 101810 69
2004-03-11 14:08 51°14.946 2°50.703 5.6 78 3.4 101810 69
2004-03-11 14:09 51°14.974 2°50.801 6 70 3.3 101820 67
2004-03-11 14:10 51°15.001 2°50.9 6.9 61 3.3 101820 66
2004-03-11 14:11 51°15.03 2°51.003 5 77 3.3 101810 66
2004-03-11 14:12 51°15.057 2°51.097 5.7 59 3.3 101810 67
2004-03-11 14:13 51°15.079 2°51.18 5.4 56 3.3 101810 67
2004-03-11 14:14 51°15.1 2°51.253 4.9 55 3.3 101800 66
2004-03-11 14:15 51°15.12 2°51.321 6.1 60 3.4 101810 67
2004-03-11 14:16 51°15.141 2°51.384 5.6 55 3.4 101810 68
2004-03-11 14:17 51°15.158 2°51.453 6.7 27 3.4 101820 66
2004-03-11 14:18 51°15.126 2°51.522 6.8 229 3.4 101800 66
2004-03-11 14:19 51°15.104 2°51.455 4.6 281 3.5 101810 68
2004-03-11 14:20 51°15.135 2°51.364 2.7 241 3.5 101810 67
2004-03-11 14:21 51°15.181 2°51.332 3.5 230 3.5 101810 67
2004-03-11 14:22 51°15.217 2°51.318 4 246 3.5 101810 67
2004-03-11 14:23 51°15.238 2°51.308 3.7 244 3.5 101810 68
2004-03-11 14:24 51°15.249 2°51.303 4.4 283 3.5 101800 66
2004-03-11 14:25 51°15.252 2°51.304 6.1 289 3.6 101800 65
2004-03-11 14:26 51°15.253 2°51.31 6.9 291 3.6 101800 64
2004-03-11 14:27 51°15.254 2°51.317 6.9 294 3.6 101800 64
2004-03-11 14:28 51°15.253 2°51.326 6 296 3.6 101810 64
2004-03-11 14:29 51°15.25 2°51.339 6.7 305 3.6 101800 64
2004-03-11 14:30 51°15.246 2°51.357 6 305 3.6 101800 63
2004-03-11 14:31 51°15.233 2°51.348 5.9 270 3.7 101800 65
2004-03-11 14:32 51°15.264 2°51.307 3.2 199 3.7 101800 66
2004-03-11 14:33 51°15.304 2°51.31 1.8 181 3.7 101800 64
2004-03-11 14:34 51°15.342 2°51.324 3.6 207 3.9 101790 64
2004-03-11 14:35 51°15.38 2°51.338 4 218 3.8 101790 63
2004-03-11 14:36 51°15.468 2°51.355 3.3 97 3.7 101790 62
2004-03-11 14:37 51°15.579 2°51.562 8.9 48 3.7 101780 63
2004-03-11 14:38 51°15.648 2°51.906 9.5 39 3.6 101780 63
2004-03-11 14:39 51°15.7 2°52.277 10.3 31 3.7 101780 64
2004-03-11 14:40 51°15.754 2°52.648 10.7 30 3.6 101780 63
2004-03-11 14:41 51°15.805 2°53.019 11.2 29 3.7 101780 60
2004-03-11 14:42 51°15.835 2°53.392 12.1 30 3.7 101770 60
2004-03-11 14:43 51°15.87 2°53.762 12 27 3.8 101780 59
2004-03-11 14:44 51°15.906 2°54.13 12.7 36 3.8 101760 68
2004-03-11 14:45 51°15.936 2°54.503 11.2 23 3.7 101760 64
2004-03-11 14:46 51°15.957 2°54.876 11.7 13 3.8 101770 58
2004-03-11 14:47 51°15.973 2°55.252 11.7 13 3.8 101780 64
2004-03-11 14:48 51°15.971 2°55.5 8.9 13 3.8 101790 63
2004-03-11 14:49 51°16.005 2°55.651 7.8 36 3.7 101770 62
2004-03-11 14:50 51°16.05 2°55.765 6.8 42 3.7 101770 63
2004-03-11 14:51 51°16.087 2°55.869 8 32 3.7 101780 63
2004-03-11 14:52 51°16.118 2°55.968 7.2 32 3.7 101770 61
2004-03-11 14:53 51°16.146 2°56.066 8 41 3.7 101770 62
2004-03-11 14:54 51°16.182 2°56.165 7.7 32 3.7 101770 62
2004-03-11 14:55 51°16.215 2°56.262 6.5 26 3.7 101780 62
2004-03-11 14:56 51°16.244 2°56.357 6.8 24 3.7 101770 62
2004-03-11 14:57 51°16.271 2°56.449 6.4 21 3.8 101770 60
2004-03-11 14:58 51°16.299 2°56.545 8 36 3.8 101770 60
2004-03-11 14:59 51°16.334 2°56.649 7.8 44 3.8 101760 59
2004-03-11 15:00 51°16.37 2°56.754 7.2 37 3.8 101760 62
2004-03-11 15:01 51°16.405 2°56.861 6.5 51 3.8 101770 65
2004-03-11 15:02 51°16.437 2°56.96 6.7 38 3.8 101770 62
2004-03-11 15:03 51°16.469 2°57.051 6.6 50 3.8 101760 64
2004-03-11 15:04 51°16.502 2°57.135 8.8 62 3.8 101750 60
2004-03-11 15:05 51°16.536 2°57.216 6.4 58 3.8 101770 59
2004-03-11 15:06 51°16.569 2°57.299 7.7 58 3.8 101760 64
2004-03-11 15:07 51°16.602 2°57.39 6.5 66 3.8 101760 60
2004-03-11 15:08 51°16.633 2°57.486 6.2 50 3.8 101760 63
2004-03-11 15:09 51°16.661 2°57.585 8 32 3.8 101760 65
2004-03-11 15:10 51°16.687 2°57.683 7.7 38 3.8 101740 58
2004-03-11 15:11 51°16.716 2°57.78 7.4 48 3.7 101750 59
2004-03-11 15:12 51°16.748 2°57.883 7.6 41 3.7 101750 58
2004-03-11 15:13 51°16.781 2°57.982 6 56 3.7 101750 56
2004-03-11 15:14 51°16.812 2°58.068 5.7 40 3.8 101760 58
2004-03-11 15:15 51°16.841 2°58.145 5.6 37 3.8 101740 61
2004-03-11 15:16 51°16.863 2°58.278 7.4 357 3.8 101750 59
2004-03-11 15:17 51°16.801 2°58.415 7.1 313 3.8 101740 59
2004-03-11 15:18 51°16.733 2°58.353 5.7 268 3.9 101750 60
2004-03-11 15:19 51°16.687 2°58.285 5.9 301 3.8 101750 60
2004-03-11 15:20 51°16.652 2°58.293 7.7 307 3.9 101760 61
2004-03-11 15:21 51°16.63 2°58.321 6.5 309 3.9 101750 58
2004-03-11 15:22 51°16.618 2°58.351 6.1 314 3.9 101750 57
2004-03-11 15:23 51°16.612 2°58.377 6.5 307 3.9 101750 61
2004-03-11 15:24 51°16.596 2°58.387 7.2 281 3.9 101750 60
2004-03-11 15:25 51°16.582 2°58.332 5.1 240 3.9 101740 59
2004-03-11 15:26 51°16.597 2°58.305 5 226 3.9 101740 53
2004-03-11 15:27 51°16.613 2°58.287 5.1 243 3.9 101750 56
2004-03-11 15:28 51°16.624 2°58.271 4.8 258 3.9 101750 57
2004-03-11 15:29 51°16.63 2°58.255 3.7 256 3.9 101740 54
2004-03-11 15:30 51°16.63 2°58.238 5.1 276 3.9 101740 54
2004-03-11 15:31 51°16.626 2°58.222 6.1 273 4.1 101740 57
2004-03-11 15:32 51°16.619 2°58.205 5.2 276 4 101750 57
2004-03-11 15:33 51°16.609 2°58.191 5 281 4.1 101740 59
2004-03-11 15:34 51°16.596 2°58.179 6.2 294 4.1 101740 58
2004-03-11 15:35 51°16.584 2°58.166 6.2 298 4.1 101740 56
2004-03-11 15:36 51°16.564 2°58.142 7.9 307 4.1 101740 56
2004-03-11 15:37 51°16.487 2°57.965 8.9 321 4.1 101730 54
2004-03-11 15:38 51°16.388 2°57.676 8.3 230 4.1 101720 54
2004-03-11 15:39 51°16.29 2°57.387 9.6 307 4.1 101720 55
2004-03-11 15:40 51°16.189 2°57.095 8.6 312 4 101730 54
2004-03-11 15:41 51°16.082 2°56.809 9.6 311 4.1 101720 56
2004-03-11 15:42 51°15.978 2°56.52 8 307 4.1 101720 55
2004-03-11 15:43 51°15.85 2°56.261 8.4 319 4 101720 56
2004-03-11 15:44 51°15.695 2°56.048 9.8 310 4.1 101720 57
2004-03-11 15:45 51°15.54 2°55.849 8.7 314 4 101720 56
2004-03-11 15:46 51°15.39 2°55.661 9.4 314 4 101680 56
2004-03-11 15:47 51°15.257 2°55.442 8.2 311 4 101680 57
2004-03-11 15:48 51°15.127 2°55.22 8.1 310 4 101680 57
2004-03-11 15:49 51°14.966 2°55.062 11.2 229 4 101680 59
2004-03-11 15:50 51°14.784 2°54.926 10.8 315 4.1 101680 59
2004-03-11 15:51 51°14.615 2°54.859 10.8 325 4 101690 56
2004-03-11 15:52 51°14.494 2°54.929 11.1 338 4.1 101690 56
2004-03-11 15:53 51°14.385 2°55.032 9 335 4.1 101690 55